HULIANWANG DIGUI-13

导读 | 星芒AI

HULIANWANG DIGUI-13 是中国发射的一颗遥感卫星,主要用于地球观测和地理信息数据获取。该卫星具备高分辨率成像能力,可广泛应用于资源调查、环境监测、城市规划等领域。其发射进一步提升了中国在遥感技术方面的实力,为相关科研和实际应用提供了重要支持。

基本信息
目录编号:
62973
目录名称:
HULIANWANG DIGUI-13
国际标识:
2025-030C
轨道中心:
EARTH
卫星名称:
HULIANWANG DIGUI-13
卫星全名:
HULIANWANG DIGUI-13
卫星状态:
在轨 (已飞行260 天)
发射日期:
2025-02-11 UTC
国别 :
中国 (CN)
星等 :
--
轨道信息
数据来源 国际轨道数据 AOE轨道数据
星历时间 2025-10-28T22:23:34+0800
1天前
查看轨道信息
2025-10-29T09:00:00+0800
16小时前
查看轨道信息
半长轴 7527.441km 7527.441km
偏心率 0.0000902 0.0000034
轨道倾角 50.005° 50.004°
近地点辐角 200.889° 128.996°
升交点赤经 346.447° 344.863°
平近点角 159.194° 187.473°
近地点 1148.627km 1149.28km
远地点 1149.985km 1149.332km
周期 108.325分钟 108.326分钟
每日圈数 13.293269 13.293267
详细信息
使用方式:
暂无
2D轨道图
3D轨道图
轨道高度分析图
轨道倾角分析图
轨道综合分析图
查看轨道综合分析图